User: anonymous   Login
Location: Unspecified
(0.0000°N, 0.0000°E)
Time: 08:45:54
(UTC+00:00)
Language:

TIANWANG 1C (TW-1C) - Orbit

View from above orbital plane
View from above orbital plane
View from above satellite
View from above satellite

Ground track
Ground track

The orbit data is extracted from the following two-line orbital elements,

1 40926U 15051B   19345.76685683  .00011897  00000-0  15072-3 0  9998
2 40926  97.1140  31.9022 0008921  80.1782  13.5335 15.59577245237561
Epoch (UTC): 11 December 2019 18:24:16
Eccentricity: 0.0008921
inclination: 97.1140°
perigee height: 383 km
apogee height: 395 km
right ascension of ascending node: 31.9022°
argument of perigee: 80.1782°
revolutions per day: 15.59577245
mean anomaly at epoch: 13.5335°
orbit number at epoch: 23756

The dashed part of the orbit path shows where the satellite is in the earth's shadow,  

DLR